This is the latest recevied weather packets stored in our database for station/object OE3APM-13. If no packets are shown the sender has not sent any weather packets the latest 10 day(s).
| Time | Temp. | Humidity | Pressure | Rain* | Wind** | Luminosity | Snow |
|---|---|---|---|---|---|---|---|
| 1777885244 | 19.44° C | 50% | 1015.1 hPa | 0 mm | - | 700 W/m² | - |
| 1777884945 | 18.89° C | 53% | 1015.1 hPa | 0 mm | - | 687 W/m² | - |
| 1777884641 | 18.89° C | 50% | 1015.1 hPa | 0 mm | - | 636 W/m² | - |
| 1777884334 | 18.33° C | 52% | 1015.2 hPa | 0 mm | - | 603 W/m² | - |
| 1777884033 | 18.33° C | 54% | 1015.2 hPa | 0 mm | - | 580 W/m² | - |
| 1777883733 | 18.33° C | 55% | 1015.2 hPa | 0 mm | - | 538 W/m² | - |
| 1777883433 | 18.33° C | 54% | 1015.2 hPa | 0 mm | - | 487 W/m² | - |
| 1777883133 | 18.33° C | 55% | 1015.2 hPa | 0 mm | - | 439 W/m² | - |
| 1777882833 | 17.78° C | 59% | 1015.2 hPa | 0 mm | - | 397 W/m² | - |
| 1777882531 | 17.78° C | 55% | 1015.1 hPa | 0 mm | - | 387 W/m² | - |
| 1777882231 | 17.78° C | 54% | 1015 hPa | 0 mm | - | 355 W/m² | - |
| 1777881932 | 17.78° C | 54% | 1015 hPa | 0 mm | - | 327 W/m² | - |
| 1777881634 | 17.78° C | 54% | 1015 hPa | 0 mm | - | 357 W/m² | - |
| 1777881333 | 18.33° C | 54% | 1015 hPa | 0 mm | - | 343 W/m² | - |
| 1777881025 | 18.33° C | 54% | 1014.9 hPa | 0 mm | - | 271 W/m² | - |
| 1777880715 | 18.33° C | 55% | 1014.8 hPa | 0 mm | - | 367 W/m² | - |
| 1777880414 | 18.33° C | 54% | 1014.8 hPa | 0 mm | - | 362 W/m² | - |
| 1777880113 | 18.33° C | 55% | 1014.7 hPa | 0 mm | - | 410 W/m² | - |
| 1777879816 | 18.33° C | 54% | 1014.5 hPa | 0 mm | - | 381 W/m² | - |
| 1777879513 | 17.78° C | 55% | 1014.4 hPa | 0 mm | - | 387 W/m² | - |
| 1777879211 | 17.78° C | 53% | 1014.4 hPa | 0 mm | - | 343 W/m² | - |
| 1777878911 | 17.78° C | 57% | 1014.4 hPa | 0 mm | - | 364 W/m² | - |
| 1777878612 | 17.78° C | 56% | 1014.3 hPa | 0 mm | - | 422 W/m² | - |
| 1777878311 | 17.22° C | 56% | 1014.3 hPa | 0 mm | - | 388 W/m² | - |
| 1777878011 | 17.22° C | 54% | 1014.2 hPa | 0 mm | - | 422 W/m² | - |
* Rain latest hour (hover to see other rain measurements)
** Current wind speed in m/s (hover to see current wind gust speed)